{"data":{"norad_id":57387,"intl_designator":"2023-100B","name":"STARLING 2","alt_names":[],"object_type":"PAYLOAD","status":"ACTIVE","operator":null,"country":"US","launch_date":"2023-07-18","launch_site_code":"RLLB","launch_vehicle":null,"mission":null,"orbit_class":"UNKNOWN","rcs_meters":null,"size_class":null,"mass_kg":null,"dimensions":null,"purposes":[],"wikipedia_slug":null,"has_3d_model":false,"image_url":null,"decayed_at":null,"tle_current":{"epoch":"2026-05-25T04:55:07.456224Z","epoch_age_seconds":57353,"freshness":"FRESH","line1":"1 57387U 23100B   26145.20494741  .00001440  00000+0  10334-3 0  9997","line2":"2 57387  99.5098 157.6033 0005218 184.8006 175.3166 15.06576815156443","mean_motion":15.06576815,"eccentricity":0.0005218,"inclination_deg":99.5098,"raan_deg":157.6033,"arg_perigee_deg":184.8006,"mean_anomaly_deg":175.3166,"bstar":0.00010334,"rev_number":15644,"period_min":95.580921308682,"perigee_km":543.05633429474,"apogee_km":550.28306256523,"semimajor_km":6924.80669843,"source":"CELESTRAK","updated_at":"2026-05-25T13:38:00.036540Z"}}}